Time,TemperatureF,DewpointF,PressureIn,WindDirection,WindDirectionDegrees,WindSpeedMPH,WindSpeedGustMPH,Humidity,HourlyPrecipIn,Conditions,Clouds,dailyrainin,SoftwareType,DateUTC
2013-01-23 00:00:00,15.0,2.1,30.03,North,5,16.0,16.0,56,0.00,,,0.00,Wunderground v.1.15,2013-01-23 05:00:00,
2013-01-23 00:09:00,15.1,2.2,30.03,North,5,18.0,23.0,56,0.00,,,0.00,Wunderground v.1.15,2013-01-23 05:09:00,
2013-01-23 00:19:00,14.8,1.5,30.02,North,5,17.0,17.0,55,0.00,,,0.00,Wunderground v.1.15,2013-01-23 05:19:00,
2013-01-23 00:29:00,14.6,1.7,30.02,North,5,14.0,19.0,56,0.00,,,0.00,Wunderground v.1.15,2013-01-23 05:29:00,
2013-01-23 00:39:00,14.6,1.7,30.02,North,5,13.0,16.0,56,0.00,,,0.00,Wunderground v.1.15,2013-01-23 05:39:00,
2013-01-23 00:49:00,14.6,1.7,30.02,North,5,15.0,15.0,56,0.00,,,0.00,Wunderground v.1.15,2013-01-23 05:49:00,
2013-01-23 00:59:00,14.4,1.9,30.02,North,5,14.0,17.0,57,0.00,,,0.00,Wunderground v.1.15,2013-01-23 05:59:00,
2013-01-23 01:09:00,14.5,2.4,30.02,North,5,13.0,13.0,58,0.00,,,0.00,Wunderground v.1.15,2013-01-23 06:09:00,
2013-01-23 01:19:00,14.6,2.5,30.03,North,5,14.0,14.0,58,0.00,,,0.00,Wunderground v.1.15,2013-01-23 06:19:00,
2013-01-23 01:29:00,14.4,1.5,30.03,North,5,13.0,20.0,56,0.00,,,0.00,Wunderground v.1.15,2013-01-23 06:29:00,
2013-01-23 01:39:00,14.4,1.9,30.03,North,5,14.0,23.0,57,0.00,,,0.00,Wunderground v.1.15,2013-01-23 06:39:00,
2013-01-23 01:49:00,14.5,1.6,30.03,North,5,15.0,15.0,56,0.00,,,0.00,Wunderground v.1.15,2013-01-23 06:49:00,
2013-01-23 01:59:00,14.6,3.2,30.03,North,5,15.0,15.0,60,0.00,,,0.00,Wunderground v.1.15,2013-01-23 06:59:00,
2013-01-23 02:09:00,14.1,1.6,30.04,North,5,13.0,13.0,57,0.00,,,0.00,Wunderground v.1.15,2013-01-23 07:09:00,
2013-01-23 02:19:00,14.1,2.0,30.04,North,5,15.0,18.0,58,0.00,,,0.00,Wunderground v.1.15,2013-01-23 07:19:00,
2013-01-23 02:29:00,14.2,3.6,30.04,North,5,12.0,12.0,62,0.00,,,0.00,Wunderground v.1.15,2013-01-23 07:29:00,
2013-01-23 02:39:00,14.0,2.7,30.05,North,5,13.0,20.0,60,0.00,,,0.00,Wunderground v.1.15,2013-01-23 07:39:00,
2013-01-23 02:49:00,13.9,2.2,30.05,North,5,14.0,18.0,59,0.00,,,0.00,Wunderground v.1.15,2013-01-23 07:49:00,
2013-01-23 02:59:00,14.1,2.4,30.05,North,5,15.0,15.0,59,0.00,,,0.00,Wunderground v.1.15,2013-01-23 07:59:00,
2013-01-23 03:09:00,14.2,2.8,30.05,North,5,16.0,16.0,60,0.00,,,0.00,Wunderground v.1.15,2013-01-23 08:09:00,
2013-01-23 03:19:00,14.0,2.7,30.05,North,5,15.0,15.0,60,0.00,,,0.00,Wunderground v.1.15,2013-01-23 08:19:00,
2013-01-23 03:29:00,13.6,1.5,30.05,North,5,11.0,19.0,58,0.00,,,0.00,Wunderground v.1.15,2013-01-23 08:29:00,
2013-01-23 03:38:00,14.0,3.4,30.05,North,5,13.0,13.0,62,0.00,,,0.00,Wunderground v.1.15,2013-01-23 08:38:00,
2013-01-23 03:49:00,13.9,2.9,30.05,North,5,11.0,25.0,61,0.00,,,0.00,Wunderground v.1.15,2013-01-23 08:49:00,
2013-01-23 03:59:00,13.9,3.3,30.05,North,5,13.0,13.0,62,0.00,,,0.00,Wunderground v.1.15,2013-01-23 08:59:00,
2013-01-23 04:09:00,13.7,3.1,30.05,North,5,11.0,11.0,62,0.00,,,0.00,Wunderground v.1.15,2013-01-23 09:09:00,
2013-01-23 04:19:00,13.6,3.3,30.05,North,5,11.0,20.0,63,0.00,,,0.00,Wunderground v.1.15,2013-01-23 09:19:00,
2013-01-23 04:29:00,13.7,3.1,30.05,North,5,12.0,12.0,62,0.00,,,0.00,Wunderground v.1.15,2013-01-23 09:29:00,
2013-01-23 04:39:00,13.6,3.0,30.05,North,5,10.0,10.0,62,0.00,,,0.00,Wunderground v.1.15,2013-01-23 09:39:00,
2013-01-23 04:49:00,13.7,3.8,30.06,North,5,9.0,9.0,64,0.00,,,0.00,Wunderground v.1.15,2013-01-23 09:49:00,
2013-01-23 04:59:00,13.7,3.8,30.06,North,5,9.0,9.0,64,0.00,,,0.00,Wunderground v.1.15,2013-01-23 09:59:00,
2013-01-23 05:09:00,13.5,2.9,30.06,North,5,9.0,9.0,62,0.00,,,0.00,Wunderground v.1.15,2013-01-23 10:09:00,
2013-01-23 05:19:00,13.5,3.6,30.06,North,5,12.0,20.0,64,0.00,,,0.00,Wunderground v.1.15,2013-01-23 10:19:00,
2013-01-23 05:29:00,13.6,4.3,30.06,North,360,10.0,10.0,66,0.00,,,0.00,Wunderground v.1.15,2013-01-23 10:29:00,
2013-01-23 05:39:00,13.6,4.0,30.06,North,360,9.0,11.0,65,0.00,,,0.00,Wunderground v.1.15,2013-01-23 10:39:00,
2013-01-23 05:49:00,13.5,3.6,30.06,North,360,9.0,9.0,64,0.00,,,0.00,Wunderground v.1.15,2013-01-23 10:49:00,
2013-01-23 05:59:00,13.4,3.1,30.06,North,5,8.0,17.0,63,0.00,,,0.00,Wunderground v.1.15,2013-01-23 10:59:00,
2013-01-23 06:09:00,13.4,2.8,30.06,North,5,9.0,9.0,62,0.00,,,0.00,Wunderground v.1.15,2013-01-23 11:09:00,
2013-01-23 06:19:00,13.4,3.5,30.06,North,5,9.0,9.0,64,0.00,,,0.00,Wunderground v.1.15,2013-01-23 11:19:00,
2013-01-23 06:29:00,13.7,3.8,30.06,North,5,11.0,11.0,64,0.00,,,0.00,Wunderground v.1.15,2013-01-23 11:29:00,
2013-01-23 06:39:00,13.9,2.9,30.07,North,5,10.0,10.0,61,0.00,,,0.00,Wunderground v.1.15,2013-01-23 11:39:00,
2013-01-23 06:49:00,13.7,3.1,30.08,North,5,10.0,10.0,62,0.00,,,0.00,Wunderground v.1.15,2013-01-23 11:49:00,
2013-01-23 06:59:00,13.7,4.1,30.08,North,5,10.0,11.0,65,0.00,,,0.00,Wunderground v.1.15,2013-01-23 11:59:00,
2013-01-23 07:09:00,13.7,3.8,30.08,North,5,11.0,11.0,64,0.00,,,0.00,Wunderground v.1.15,2013-01-23 12:09:00,
2013-01-23 07:19:00,13.7,3.1,30.08,North,360,10.0,13.0,62,0.00,,,0.00,Wunderground v.1.15,2013-01-23 12:19:00,
2013-01-23 07:29:00,13.6,3.0,30.08,North,5,11.0,11.0,62,0.00,,,0.00,Wunderground v.1.15,2013-01-23 12:29:00,
2013-01-23 07:39:00,13.7,2.0,30.08,North,5,11.0,11.0,59,0.00,,,0.00,Wunderground v.1.15,2013-01-23 12:39:00,
2013-01-23 07:49:00,13.5,2.9,30.09,North,5,10.0,12.0,62,0.00,,,0.00,Wunderground v.1.15,2013-01-23 12:49:00,
2013-01-23 07:59:00,13.5,2.5,30.09,North,5,11.0,11.0,61,0.00,,,0.00,Wunderground v.1.15,2013-01-23 12:59:00,
2013-01-23 08:09:00,13.6,2.6,30.09,North,5,9.0,12.0,61,0.00,,,0.00,Wunderground v.1.15,2013-01-23 13:09:00,
2013-01-23 08:19:00,13.8,2.1,30.09,North,5,10.0,10.0,59,0.00,,,0.00,Wunderground v.1.15,2013-01-23 13:19:00,
2013-01-23 08:29:00,13.8,2.1,30.09,North,5,11.0,11.0,59,0.00,,,0.00,Wunderground v.1.15,2013-01-23 13:29:00,
2013-01-23 08:39:00,13.8,1.7,30.09,North,5,11.0,11.0,58,0.00,,,0.00,Wunderground v.1.15,2013-01-23 13:39:00,
2013-01-23 08:49:00,13.9,2.9,30.09,North,5,9.0,12.0,61,0.00,,,0.00,Wunderground v.1.15,2013-01-23 13:49:00,
2013-01-23 08:59:00,13.7,0.9,30.09,North,5,11.0,11.0,56,0.00,,,0.00,Wunderground v.1.15,2013-01-23 13:59:00,
2013-01-23 09:09:00,14.0,3.0,30.10,North,5,10.0,10.0,61,0.00,,,0.00,Wunderground v.1.15,2013-01-23 14:09:00,
2013-01-23 09:19:00,13.8,2.8,30.10,North,5,12.0,12.0,61,0.00,,,0.00,Wunderground v.1.15,2013-01-23 14:19:00,
2013-01-23 09:29:00,13.8,2.5,30.10,North,5,10.0,10.0,60,0.00,,,0.00,Wunderground v.1.15,2013-01-23 14:29:00,
2013-01-23 09:39:00,14.0,2.3,30.10,North,5,11.0,11.0,59,0.00,,,0.00,Wunderground v.1.15,2013-01-23 14:39:00,
2013-01-23 09:50:00,13.9,2.9,30.11,North,5,12.0,15.0,61,0.00,,,0.00,Wunderground v.1.15,2013-01-23 14:50:00,
2013-01-23 09:59:00,14.1,2.4,30.11,North,5,9.0,10.0,59,0.00,,,0.00,Wunderground v.1.15,2013-01-23 14:59:00,
2013-01-23 10:09:00,14.3,2.6,30.11,North,5,9.0,9.0,59,0.00,,,0.00,Wunderground v.1.15,2013-01-23 15:09:00,
2013-01-23 10:19:00,14.3,2.9,30.11,North,5,10.0,10.0,60,0.00,,,0.00,Wunderground v.1.15,2013-01-23 15:19:00,
2013-01-23 10:29:00,14.6,2.9,30.11,North,5,9.0,18.0,59,0.00,,,0.00,Wunderground v.1.15,2013-01-23 15:29:00,
2013-01-23 10:39:00,14.5,2.0,30.11,North,5,10.0,10.0,57,0.00,,,0.00,Wunderground v.1.15,2013-01-23 15:39:00,
2013-01-23 10:49:00,14.5,0.9,30.11,North,5,9.0,9.0,54,0.00,,,0.00,Wunderground v.1.15,2013-01-23 15:49:00,
2013-01-23 10:59:00,14.5,1.6,30.11,North,5,8.0,12.0,56,0.00,,,0.00,Wunderground v.1.15,2013-01-23 15:59:00,
2013-01-23 11:09:00,14.9,1.2,30.10,North,5,9.0,14.0,54,0.00,,,0.00,Wunderground v.1.15,2013-01-23 16:09:00,
2013-01-23 11:19:00,14.9,1.6,30.09,North,5,8.0,13.0,55,0.00,,,0.00,Wunderground v.1.15,2013-01-23 16:19:00,
2013-01-23 11:29:00,15.0,2.1,30.09,North,5,8.0,8.0,56,0.00,,,0.00,Wunderground v.1.15,2013-01-23 16:29:00,
2013-01-23 11:39:00,15.3,1.6,30.08,North,5,9.0,12.0,54,0.00,,,0.00,Wunderground v.1.15,2013-01-23 16:39:00,
2013-01-23 11:49:00,15.3,2.0,30.08,North,360,9.0,9.0,55,0.00,,,0.00,Wunderground v.1.15,2013-01-23 16:49:00,
2013-01-23 11:59:00,15.3,1.2,30.08,North,5,9.0,15.0,53,0.00,,,0.00,Wunderground v.1.15,2013-01-23 16:59:00,
2013-01-23 12:09:00,15.4,1.7,30.07,North,5,8.0,8.0,54,0.00,,,0.00,Wunderground v.1.15,2013-01-23 17:09:00,
2013-01-23 12:19:00,15.9,3.0,30.06,North,5,6.0,9.0,56,0.00,,,0.00,Wunderground v.1.15,2013-01-23 17:19:00,
2013-01-23 12:29:00,16.0,1.9,30.06,North,5,7.0,7.0,53,0.00,,,0.00,Wunderground v.1.15,2013-01-23 17:29:00,
2013-01-23 12:39:00,16.2,0.8,30.05,North,5,7.0,7.0,50,0.00,,,0.00,Wunderground v.1.15,2013-01-23 17:39:00,
2013-01-23 12:49:00,16.2,0.8,30.04,North,5,10.0,10.0,50,0.00,,,0.00,Wunderground v.1.15,2013-01-23 17:49:00,
2013-01-23 12:59:00,16.2,0.4,30.04,North,5,11.0,11.0,49,0.00,,,0.00,Wunderground v.1.15,2013-01-23 17:59:00,
2013-01-23 13:09:00,16.3,2.1,30.04,North,5,10.0,10.0,53,0.00,,,0.00,Wunderground v.1.15,2013-01-23 18:09:00,
2013-01-23 13:19:00,16.6,0.3,30.03,North,5,8.0,8.0,48,0.00,,,0.00,Wunderground v.1.15,2013-01-23 18:19:00,
2013-01-23 13:29:00,16.7,0.4,30.03,North,5,10.0,10.0,48,0.00,,,0.00,Wunderground v.1.15,2013-01-23 18:29:00,
2013-01-23 13:39:00,16.6,0.3,30.03,North,5,9.0,10.0,48,0.00,,,0.00,Wunderground v.1.15,2013-01-23 18:39:00,
2013-01-23 13:49:00,17.1,1.2,30.02,North,5,7.0,7.0,49,0.00,,,0.00,Wunderground v.1.15,2013-01-23 18:49:00,
2013-01-23 13:59:00,16.9,1.0,30.02,North,5,11.0,11.0,49,0.00,,,0.00,Wunderground v.1.15,2013-01-23 18:59:00,
2013-01-23 14:09:00,16.7,0.8,30.02,North,360,12.0,12.0,49,0.00,,,0.00,Wunderground v.1.15,2013-01-23 19:09:00,
2013-01-23 14:18:00,16.8,0.5,30.02,North,5,10.0,10.0,48,0.00,,,0.00,Wunderground v.1.15,2013-01-23 19:18:00,
2013-01-23 14:28:00,16.9,1.0,30.02,North,5,7.0,7.0,49,0.00,,,0.00,Wunderground v.1.15,2013-01-23 19:28:00,
2013-01-23 14:39:00,17.2,2.1,30.03,North,5,8.0,18.0,51,0.00,,,0.00,Wunderground v.1.15,2013-01-23 19:39:00,
2013-01-23 14:49:00,17.1,1.6,30.02,North,5,10.0,11.0,50,0.00,,,0.00,Wunderground v.1.15,2013-01-23 19:49:00,
2013-01-23 14:59:00,17.0,1.1,30.02,North,5,11.0,11.0,49,0.00,,,0.00,Wunderground v.1.15,2013-01-23 19:59:00,
2013-01-23 15:09:00,17.2,2.6,30.03,North,5,10.0,15.0,52,0.00,,,0.00,Wunderground v.1.15,2013-01-23 20:09:00,
2013-01-23 15:19:00,16.9,1.4,30.03,North,5,13.0,13.0,50,0.00,,,0.00,Wunderground v.1.15,2013-01-23 20:19:00,
2013-01-23 15:29:00,17.1,1.6,30.03,North,5,12.0,12.0,50,0.00,,,0.00,Wunderground v.1.15,2013-01-23 20:29:00,
2013-01-23 15:39:00,17.1,1.6,30.03,North,5,6.0,10.0,50,0.00,,,0.00,Wunderground v.1.15,2013-01-23 20:39:00,
2013-01-23 15:49:00,17.3,3.9,30.02,North,5,11.0,11.0,55,0.00,,,0.00,Wunderground v.1.15,2013-01-23 20:49:00,
2013-01-23 15:59:00,17.3,3.5,30.02,North,5,8.0,8.0,54,0.00,,,0.00,Wunderground v.1.15,2013-01-23 20:59:00,
2013-01-23 16:09:00,17.3,2.2,30.03,North,5,7.0,13.0,51,0.00,,,0.00,Wunderground v.1.15,2013-01-23 21:09:00,
2013-01-23 16:19:00,17.2,3.0,30.03,North,5,8.0,19.0,53,0.00,,,0.00,Wunderground v.1.15,2013-01-23 21:19:00,
2013-01-23 16:29:00,17.3,1.8,30.03,North,5,13.0,13.0,50,0.00,,,0.00,Wunderground v.1.15,2013-01-23 21:29:00,
2013-01-23 16:39:00,17.5,2.8,30.03,North,5,11.0,11.0,52,0.00,,,0.00,Wunderground v.1.15,2013-01-23 21:39:00,
2013-01-23 16:49:00,17.4,1.0,30.03,North,5,11.0,11.0,48,0.00,,,0.00,Wunderground v.1.15,2013-01-23 21:49:00,
2013-01-23 16:59:00,17.3,0.9,30.03,North,5,9.0,9.0,48,0.00,,,0.00,Wunderground v.1.15,2013-01-23 21:59:00,
2013-01-23 17:09:00,17.4,1.9,30.04,North,5,9.0,9.0,50,0.00,,,0.00,Wunderground v.1.15,2013-01-23 22:09:00,
2013-01-23 17:19:00,17.5,3.3,30.03,North,5,9.0,9.0,53,0.00,,,0.00,Wunderground v.1.15,2013-01-23 22:19:00,
2013-01-23 17:29:00,17.4,1.9,30.03,North,5,6.0,18.0,50,0.00,,,0.00,Wunderground v.1.15,2013-01-23 22:29:00,
2013-01-23 17:39:00,17.6,3.3,30.04,North,5,10.0,10.0,53,0.00,,,0.00,Wunderground v.1.15,2013-01-23 22:39:00,
2013-01-23 17:49:00,17.3,0.9,30.05,North,5,7.0,8.0,48,0.00,,,0.00,Wunderground v.1.15,2013-01-23 22:49:00,
2013-01-23 17:59:00,17.5,2.8,30.05,North,5,12.0,12.0,52,0.00,,,0.00,Wunderground v.1.15,2013-01-23 22:59:00,
2013-01-23 18:09:00,17.5,0.7,30.05,North,5,8.0,8.0,47,0.00,,,0.00,Wunderground v.1.15,2013-01-23 23:09:00,
2013-01-23 18:19:00,17.6,2.1,30.05,North,5,10.0,10.0,50,0.00,,,0.00,Wunderground v.1.15,2013-01-23 23:19:00,
2013-01-23 18:29:00,17.6,2.1,30.05,North,5,10.0,11.0,50,0.00,,,0.00,Wunderground v.1.15,2013-01-23 23:29:00,
2013-01-23 18:39:00,17.4,0.1,30.05,North,5,10.0,12.0,46,0.00,,,0.00,Wunderground v.1.15,2013-01-23 23:39:00,
2013-01-23 18:49:00,17.5,1.1,30.05,North,5,14.0,14.0,48,0.00,,,0.00,Wunderground v.1.15,2013-01-23 23:49:00,
2013-01-23 18:59:00,17.5,0.7,30.05,North,360,14.0,16.0,47,0.00,,,0.00,Wunderground v.1.15,2013-01-23 23:59:00,
2013-01-23 19:08:00,17.3,0.9,30.06,North,5,13.0,13.0,48,0.00,,,0.00,Wunderground v.1.15,2013-01-24 00:08:00,
2013-01-23 19:18:00,17.6,2.9,30.06,North,5,13.0,13.0,52,0.00,,,0.00,Wunderground v.1.15,2013-01-24 00:18:00,
2013-01-23 19:28:00,17.6,2.1,30.06,North,5,15.0,15.0,50,0.00,,,0.00,Wunderground v.1.15,2013-01-24 00:28:00,
2013-01-23 19:39:00,17.5,2.0,30.06,North,5,17.0,17.0,50,0.00,,,0.00,Wunderground v.1.15,2013-01-24 00:39:00,
2013-01-23 19:49:00,17.4,2.3,30.06,North,5,15.0,15.0,51,0.00,,,0.00,Wunderground v.1.15,2013-01-24 00:49:00,
2013-01-23 19:59:00,17.5,1.6,30.06,North,360,17.0,19.0,49,0.00,,,0.00,Wunderground v.1.15,2013-01-24 00:59:00,
2013-01-23 20:09:00,17.6,1.7,30.06,North,5,14.0,14.0,49,0.00,,,0.00,Wunderground v.1.15,2013-01-24 01:09:00,
2013-01-23 20:19:00,17.4,1.9,30.07,North,5,14.0,14.0,50,0.00,,,0.00,Wunderground v.1.15,2013-01-24 01:19:00,
2013-01-23 20:29:00,17.2,1.7,30.07,North,360,15.0,15.0,50,0.00,,,0.00,Wunderground v.1.15,2013-01-24 01:29:00,
2013-01-23 20:39:00,17.2,0.8,30.07,North,5,14.0,17.0,48,0.00,,,0.00,Wunderground v.1.15,2013-01-24 01:39:00,
2013-01-23 20:49:00,17.2,1.3,30.06,North,5,14.0,14.0,49,0.00,,,0.00,Wunderground v.1.15,2013-01-24 01:49:00,
2013-01-23 20:59:00,17.0,1.1,30.06,North,5,11.0,14.0,49,0.00,,,0.00,Wunderground v.1.15,2013-01-24 01:59:00,
2013-01-23 21:09:00,17.2,3.0,30.06,North,5,13.0,15.0,53,0.00,,,0.00,Wunderground v.1.15,2013-01-24 02:09:00,
2013-01-23 21:19:00,17.0,4.0,30.06,North,5,15.0,18.0,56,0.00,,,0.00,Wunderground v.1.15,2013-01-24 02:19:00,
2013-01-23 21:29:00,16.7,2.9,30.06,North,5,12.0,22.0,54,0.00,,,0.00,Wunderground v.1.15,2013-01-24 02:29:00,
2013-01-23 21:39:00,16.8,3.4,30.07,North,5,14.0,19.0,55,0.00,,,0.00,Wunderground v.1.15,2013-01-24 02:39:00,
2013-01-23 21:49:00,16.7,2.1,30.06,North,5,14.0,14.0,52,0.00,,,0.00,Wunderground v.1.15,2013-01-24 02:49:00,
2013-01-23 21:59:00,16.4,0.5,30.06,North,5,12.0,12.0,49,0.00,,,0.00,Wunderground v.1.15,2013-01-24 02:59:00,
2013-01-23 22:09:00,16.2,0.4,30.06,North,5,13.0,13.0,49,0.00,,,0.00,Wunderground v.1.15,2013-01-24 03:09:00,
2013-01-23 22:19:00,16.3,1.3,30.07,North,5,11.0,14.0,51,0.00,,,0.00,Wunderground v.1.15,2013-01-24 03:19:00,
2013-01-23 22:29:00,16.2,1.6,30.07,North,5,11.0,11.0,52,0.00,,,0.00,Wunderground v.1.15,2013-01-24 03:29:00,
2013-01-23 22:39:00,16.2,0.8,30.07,North,5,12.0,14.0,50,0.00,,,0.00,Wunderground v.1.15,2013-01-24 03:39:00,
2013-01-23 22:49:00,16.2,0.4,30.07,North,5,12.0,12.0,49,0.00,,,0.00,Wunderground v.1.15,2013-01-24 03:49:00,
2013-01-23 22:59:00,16.1,-0.6,30.07,North,5,11.0,11.0,47,0.00,,,0.00,Wunderground v.1.15,2013-01-24 03:59:00,
2013-01-23 23:09:00,16.1,-1.1,30.07,North,5,11.0,11.0,46,0.00,,,0.00,Wunderground v.1.15,2013-01-24 04:09:00,
2013-01-23 23:19:00,16.3,1.7,30.07,North,5,12.0,12.0,52,0.00,,,0.00,Wunderground v.1.15,2013-01-24 04:19:00,
2013-01-23 23:29:00,16.2,1.2,30.07,North,360,14.0,14.0,51,0.00,,,0.00,Wunderground v.1.15,2013-01-24 04:29:00,
2013-01-23 23:39:00,16.2,2.0,30.07,North,5,12.0,13.0,53,0.00,,,0.00,Wunderground v.1.15,2013-01-24 04:39:00,
2013-01-23 23:49:00,16.0,0.6,30.06,North,5,12.0,12.0,50,0.00,,,0.00,Wunderground v.1.15,2013-01-24 04:49:00,
2013-01-23 23:59:00,15.7,2.0,30.06,North,5,8.0,8.0,54,0.00,,,0.00,Wunderground v.1.15,2013-01-24 04:59:00,